TimeCST,TemperatureF,Dew PointF,Humidity,Sea Level PressureIn,VisibilityMPH,Wind Direction,Wind SpeedMPH,Gust SpeedMPH,PrecipitationIn,Events,Conditions,WindDirDegrees,DateUTC
12:15 AM,49.6,33.1,53,30.19,10.0,SSE,10.4,-,N/A,,Overcast,160,2012-11-19 06:15:00
12:35 AM,50.2,32.7,51,30.19,10.0,SSE,12.7,-,N/A,,Overcast,160,2012-11-19 06:35:00
12:55 AM,50.9,32.9,50,30.18,10.0,SSE,11.5,-,N/A,,Overcast,160,2012-11-19 06:55:00
1:15 AM,50.5,33.1,51,30.18,10.0,South,12.7,-,N/A,,Overcast,170,2012-11-19 07:15:00
1:35 AM,50.4,33.4,52,30.19,10.0,South,9.2,-,N/A,Rain,Rain,180,2012-11-19 07:35:00
1:55 AM,49.1,36.0,61,30.20,10.0,SW,5.8,-,N/A,Rain,Light Rain,230,2012-11-19 07:55:00
2:15 AM,48.2,37.8,67,30.20,10.0,SW,8.1,-,N/A,Rain,Light Rain,220,2012-11-19 08:15:00
2:35 AM,47.8,39.0,71,30.19,10.0,South,8.1,-,0.03,Rain,Rain,180,2012-11-19 08:35:00
2:55 AM,47.3,40.3,77,30.18,10.0,South,10.4,-,0.03,Rain,Light Rain,170,2012-11-19 08:55:00
3:15 AM,47.3,41.2,79,30.17,10.0,SSE,10.4,-,N/A,,Overcast,160,2012-11-19 09:15:00
3:35 AM,46.9,41.4,81,30.16,10.0,SE,9.2,-,N/A,,Overcast,140,2012-11-19 09:35:00
3:55 AM,46.9,41.5,81,30.16,10.0,SSE,8.1,-,N/A,,Overcast,150,2012-11-19 09:55:00
4:15 AM,46.8,41.9,83,30.15,10.0,SE,10.4,-,N/A,,Overcast,140,2012-11-19 10:15:00
4:35 AM,46.9,41.9,83,30.14,10.0,SSE,10.4,-,N/A,,Overcast,150,2012-11-19 10:35:00
4:55 AM,47.3,42.3,83,30.14,10.0,SSE,9.2,-,N/A,,Overcast,150,2012-11-19 10:55:00
5:15 AM,47.5,42.3,82,30.13,10.0,SSE,10.4,-,N/A,,Overcast,160,2012-11-19 11:15:00
5:35 AM,47.7,42.3,82,30.13,10.0,South,9.2,-,N/A,,Overcast,170,2012-11-19 11:35:00
5:55 AM,47.8,42.3,81,30.13,10.0,South,10.4,-,N/A,,Mostly Cloudy,170,2012-11-19 11:55:00
6:15 AM,48.0,42.3,80,30.13,10.0,South,10.4,-,N/A,,Overcast,170,2012-11-19 12:15:00
6:35 AM,47.3,41.9,82,30.13,10.0,SSE,9.2,-,N/A,,Scattered Clouds,150,2012-11-19 12:35:00
6:55 AM,46.9,41.9,83,30.13,10.0,SE,8.1,-,N/A,,Clear,140,2012-11-19 12:55:00
7:35 AM,46.2,41.5,84,30.13,10.0,SSE,8.1,-,N/A,,Clear,150,2012-11-19 13:35:00
7:55 AM,46.4,41.5,83,30.13,10.0,SSE,9.2,-,N/A,,Clear,150,2012-11-19 13:55:00
8:15 AM,46.6,41.9,84,30.13,10.0,SSE,8.1,-,N/A,,Clear,150,2012-11-19 14:15:00
8:35 AM,47.5,42.6,83,30.12,10.0,SSE,8.1,-,N/A,,Clear,160,2012-11-19 14:35:00
8:55 AM,49.3,43.2,79,30.13,10.0,SSE,10.4,-,N/A,,Scattered Clouds,160,2012-11-19 14:55:00
9:15 AM,50.4,43.7,78,30.13,10.0,South,9.2,-,N/A,,Scattered Clouds,170,2012-11-19 15:15:00
9:35 AM,51.4,44.4,77,30.13,10.0,South,8.1,-,N/A,,Mostly Cloudy,180,2012-11-19 15:35:00
9:55 AM,52.7,44.6,74,30.13,10.0,South,12.7,-,N/A,,Overcast,190,2012-11-19 15:55:00
10:15 AM,52.9,44.8,74,30.13,10.0,South,10.4,-,N/A,,Overcast,190,2012-11-19 16:15:00
10:35 AM,54.7,46.0,73,30.13,10.0,South,11.5,-,N/A,,Overcast,190,2012-11-19 16:35:00
10:55 AM,55.9,46.2,70,30.12,10.0,South,12.7,-,N/A,,Overcast,190,2012-11-19 16:55:00
11:15 AM,57.4,46.4,67,30.11,10.0,South,11.5,-,N/A,,Scattered Clouds,180,2012-11-19 17:15:00
11:35 AM,58.5,46.8,65,30.10,10.0,South,15.0,-,N/A,,Scattered Clouds,190,2012-11-19 17:35:00
11:55 AM,58.1,45.9,64,30.09,10.0,South,11.5,20.7,N/A,,Mostly Cloudy,190,2012-11-19 17:55:00
12:15 PM,58.5,46.4,64,30.08,10.0,South,13.8,-,N/A,,Mostly Cloudy,170,2012-11-19 18:15:00
12:35 PM,58.6,46.4,64,30.07,10.0,South,11.5,-,N/A,,Mostly Cloudy,190,2012-11-19 18:35:00
12:55 PM,59.2,46.6,63,30.07,10.0,South,11.5,-,N/A,,Mostly Cloudy,180,2012-11-19 18:55:00
1:15 PM,59.5,46.8,63,30.06,10.0,SSW,11.5,-,N/A,,Scattered Clouds,200,2012-11-19 19:15:00
1:35 PM,60.3,46.2,60,30.06,10.0,South,10.4,-,N/A,,Scattered Clouds,190,2012-11-19 19:35:00
1:55 PM,60.3,46.4,60,30.05,10.0,South,11.5,-,N/A,,Scattered Clouds,190,2012-11-19 19:55:00
2:15 PM,60.4,46.8,61,30.05,10.0,SSW,10.4,-,N/A,,Scattered Clouds,210,2012-11-19 20:15:00
2:35 PM,60.8,46.6,59,30.05,10.0,South,8.1,-,N/A,,Scattered Clouds,190,2012-11-19 20:35:00
2:55 PM,60.1,46.8,61,30.04,10.0,South,11.5,-,N/A,,Scattered Clouds,180,2012-11-19 20:55:00
3:15 PM,60.8,46.6,59,30.04,10.0,SSW,9.2,-,N/A,,Mostly Cloudy,200,2012-11-19 21:15:00
3:35 PM,60.8,46.4,59,30.05,10.0,SSW,10.4,-,N/A,,Scattered Clouds,210,2012-11-19 21:35:00
3:55 PM,59.9,46.6,61,30.05,10.0,SSW,6.9,-,N/A,,Clear,210,2012-11-19 21:55:00
4:15 PM,58.3,46.8,66,30.06,10.0,SSW,4.6,-,N/A,,Clear,210,2012-11-19 22:15:00
4:35 PM,55.9,47.3,73,30.06,10.0,SSE,4.6,-,N/A,,Clear,160,2012-11-19 22:35:00
4:55 PM,52.3,45.9,79,30.06,10.0,SSE,4.6,-,N/A,,Clear,150,2012-11-19 22:55:00
5:15 PM,51.8,46.0,81,30.06,10.0,SE,6.9,-,N/A,,Clear,130,2012-11-19 23:15:00
5:35 PM,50.7,45.5,82,30.06,10.0,SE,8.1,-,N/A,,Clear,130,2012-11-19 23:35:00
5:55 PM,49.3,45.1,86,30.07,10.0,SE,6.9,-,N/A,,Clear,140,2012-11-19 23:55:00
6:15 PM,48.6,44.8,87,30.07,10.0,SE,8.1,-,N/A,,Clear,140,2012-11-20 00:15:00
6:35 PM,48.0,44.8,89,30.07,7.0,SE,8.1,-,N/A,,Clear,130,2012-11-20 00:35:00
6:55 PM,47.1,44.1,89,30.06,7.0,SE,8.1,-,N/A,,Clear,130,2012-11-20 00:55:00
7:15 PM,46.2,43.2,89,30.06,7.0,SE,8.1,-,N/A,,Clear,140,2012-11-20 01:15:00
7:35 PM,46.0,43.3,90,30.07,7.0,SE,6.9,-,N/A,,Clear,140,2012-11-20 01:35:00
7:55 PM,45.3,42.6,90,30.07,7.0,SSE,5.8,-,N/A,,Clear,150,2012-11-20 01:55:00
8:15 PM,44.4,41.9,91,30.07,5.0,SSE,6.9,-,N/A,,Clear,150,2012-11-20 02:15:00
8:35 PM,43.9,41.7,92,30.07,5.0,SSE,5.8,-,N/A,,Clear,150,2012-11-20 02:35:00
8:55 PM,43.7,41.2,91,30.06,5.0,SSE,6.9,-,N/A,,Clear,150,2012-11-20 02:55:00
9:15 PM,44.1,41.7,91,30.06,4.0,SE,8.1,-,N/A,,Clear,140,2012-11-20 03:15:00
9:35 PM,43.7,41.4,91,30.06,4.0,SSE,8.1,-,N/A,,Clear,150,2012-11-20 03:35:00
9:55 PM,43.9,41.7,92,30.05,4.0,SE,6.9,-,N/A,,Clear,140,2012-11-20 03:55:00
10:15 PM,42.8,40.5,91,30.05,2.5,SSE,6.9,-,N/A,,Clear,150,2012-11-20 04:15:00
10:35 PM,43.2,41.2,93,30.05,2.5,SE,6.9,-,N/A,,Clear,140,2012-11-20 04:35:00
10:55 PM,42.4,40.5,93,30.05,1.8,SE,4.6,-,N/A,,Mist,130,2012-11-20 04:55:00
11:15 PM,40.8,38.7,92,30.05,0.2,SE,5.8,-,N/A,Fog,Fog,140,2012-11-20 05:15:00
11:35 PM,40.8,39.0,93,30.05,0.2,SE,5.8,-,N/A,Fog,Fog,130,2012-11-20 05:35:00
11:55 PM,41.0,39.2,93,30.05,0.2,SE,6.9,-,N/A,Fog,Fog,140,2012-11-20 05:55:00